Regional Weather Roundup
Issued by NWS Columbia, SC

Home | Current Version | Previous Version | Text Only | Print | Product List | Glossary On
Versions: 1 2 3 4 5 6 7 8 9 10 11 12 13 14 15 16 17 18 19 20 21 22 23 24 25 26 27 28 29 30 31 32 33 34 35 36 37 38 39 40 41 42 43 44 45 46 47 48 49 50
000
ASUS42 KCAE 210910
RWRCAE
REGIONAL WEATHER ROUNDUP
NATIONAL WEATHER SERVICE COLUMBIA SC
500 AM EDT THU AUG 21 2014

NOTE: "FAIR" INDICATES FEW OR NO CLOUDS BELOW 12,000 FEET WITH NO
SIGNIFICANT WEATHER AND/OR OBSTRUCTIONS TO VISIBILITY.

NOT ALL STATIONS ARE QUALITY CONTROLLED BY THE NATIONAL
WEATHER SERVICE. USE DATA WITH CAUTION...ESPECIALLY
DEWPOINT OBSERVATIONS.

SCZ001>056-GAZ040-063>065-077-211000-
...UPSTATE SOUTH CAROLINA...

CITY           SKY/WX    TMP DP  RH WIND       PRES   REMARKS
ANDERSON       CLEAR     69  66  90 CALM      30.05S
LIBERTY        FAIR      65  32  29 CALM      30.05S
SPARTANBURG    FAIR      70  64  83 CALM      30.05R
CLEMSON        CLEAR     72  64  76 W6        30.06S
GREENVILLE     CLEAR     72  65  78 CALM      30.06S
GREENWOOD      PTCLDY    70  66  87 CALM      30.05F
GREER          CLEAR     69  66  90 E5        30.04S
ROCK HILL      CLEAR     71  70  96 CALM      30.05R
CHESTER        FAIR      73  68  83 NW5       30.05S
LAURENS        FAIR      70 N/A N/A CALM      30.05S


...CENTRAL SOUTH CAROLINA...

CITY           SKY/WX    TMP DP  RH WIND       PRES   REMARKS
COLUMBIA APT   PTCLDY    76  69  79 W8        30.01R
COLUMBIA OWENS PTCLDY    77  70  79 NW3       30.01R
DARLINGTON     CLEAR     73  70  88 NW3       30.01R
FLORENCE       CLEAR     75  72  90 CALM      29.99S
MCENTIRE ANGB  PTCLDY    72  72  98 CALM      30.00S
ORANGEBURG     PTCLDY    73  69  87 SW5       30.01S
SUMTER SHAW    CLEAR     76  72  89 S3        29.98S
NEWBERRY       FAIR      72  68  88 W3        30.07R
AIKEN          FAIR      72  72 100 W3        30.08R
BARNWELL       FAIR      72  70  94 SW5       30.02F
MANNING        FAIR      73 N/A N/A CALM      30.00S
CAMDEN         FAIR      73  72  94 CALM      30.02R
LANCASTER      FAIR      73  73 100 CALM      30.03S FOG
WINNSBORO      FAIR      72  70  94 NW5       30.03R


...EASTERN AND COASTAL SOUTH CAROLINA...

CITY           SKY/WX    TMP DP  RH WIND       PRES   REMARKS
MYRTLE BEACH   CLEAR     79  73  83 SW6       29.99S
N MYRTLE BCH   CLEAR     76  75  97 CALM      29.98S FOG
CONWAY         FAIR      73  73 100 CALM      29.99S FOG
MARION         FAIR      73  73 100 CALM      29.99R
HARTSVILLE     FAIR      73 N/A N/A CALM      30.01R
FLORENCE       CLEAR     75  72  90 CALM      29.99S
DARLINGTON     CLEAR     73  70  88 NW3       30.01R
CHARLESTON APT PTCLDY    78  72  81 W6        30.01S
MOUNT PLEASANT FAIR      75  73  94 CALM      30.00S
WALTERBORO     PTSUNNY   73 N/A N/A CALM      30.02S
BEAUFORT       PTCLDY    76  70  82 W3        30.02F


...EASTERN GEORGIA...

CITY           SKY/WX    TMP DP  RH WIND       PRES   REMARKS
AUGUSTA BUSH F CLEAR     73  68  84 CALM      30.02S
AUGUSTA DANIEL CLEAR     75  68  78 W6        30.04S
THOMSON        PTCLDY    72  72 100 CALM      30.09S
WASHINGTON     FAIR      72  72 100 CALM      30.06R
CLAXTON        FAIR      72  72 100 W3        30.04S
SYLVANIA       MOSUNNY   71  71  99 CALM      30.04S
STATESBORO     CLEAR     71  71 100 CALM      30.03S
SAVANNAH       PTCLDY    75  68  78 SW3       30.03F


...SOUTHERN NORTH CAROLINA...

CITY           SKY/WX    TMP DP  RH WIND       PRES   REMARKS
CHARLOTTE      MOCLDY    70  67  90 CALM      30.05R
MONROE         CLEAR     74  70  87 W3        30.04R
WADESBORO      SUNNY     72  70  93 CALM      30.01S FOG
ROCKINGHAM     SUNNY     73  72  96 CALM      30.01R FOG
RUTHERFORDTON  CLEAR     66  64  95 CALM      30.07S
ASHEVILLE      CLEAR     65  62  90 N9        30.15S

$$


USA.gov is the U.S. government's official web portal to all federal, state and local government web resources and services.